Lapse_Rate
1.8 2.1 1.7 3.7 6.4 6.5 6.5 6.5 6.5 6.5 6.5 6.0 5.1 6.3 6.3 5.7 6.5 6.5 1.3 0.4 1.5 3.2 2.9 5.3 4.3 3.8 3.8 3.7 3.6 3.7 4.0 4.0 3.9 3.8 3.8 3.9 4.0 4.3 4.7 5.1 5.4 5.6 6.0 6.2 5.9 6.0 6.1 6.2 6.1
2.8 4.5 4.6 3.7 6.5 6.5 6.5 6.5 6.5 6.5 6.8 5.3 5.8 6.4 6.3 6.5 4.8 4.5 2.6 1.0 1.7 0.6 0.6 4.6 4.9 4.9 4.8 4.4 4.1 4.3 4.4 4.3 4.3 4.2 4.4 4.1 4.1 4.4 4.7 5.2 5.6 5.8 6.1 6.2 6.1 6.3 6.2 6.0 5.7
2.4 5.0 4.0 6.5 6.5 6.5 6.5 6.5 6.5 6.7 5.8 6.2 6.0 5.5 6.8 6.7 6.4 6.2 4.2 2.3 2.3 0.9 -0.6 2.0 5.1 5.4 5.2 4.7 4.3 4.2 4.1 4.1 4.2 4.5 4.4 4.1 4.2 4.6 5.1 5.5 5.6 6.1 6.0 6.1 6.1 6.0 5.6 5.4 5.5
3.9 3.3 3.4 6.5 6.5 6.5 6.5 6.5 6.5 6.5 6.0 6.3 5.8 6.5 5.6 5.7 4.7 6.3 4.9 3.3 2.7 2.1 1.2 2.0 5.4 5.8 5.1 4.7 4.3 4.0 3.8 3.9 4.2 4.2 4.2 4.1 4.4 4.6 5.0 6.2 6.0 5.7 5.8 5.9 5.8 5.4 5.0 5.4 5.9
3.8 3.5 6.5 6.5 6.5 6.5 6.5 6.3 4.3 6.5 6.6 6.7 5.7 6.5 6.6 4.0 3.0 4.9 4.2 5.4 3.0 3.0 3.3 4.8 5.5 5.3 5.3 4.7 4.3 4.0 4.1 4.2 4.3 4.3 4.0 4.0 4.3 4.6 4.9 5.6 5.7 5.3 5.1 5.2 5.0 4.8 5.0 5.4 5.8
4.5 2.9 6.5 6.5 6.5 6.5 6.5 5.3 5.3 6.6 6.7 5.4 6.4 6.8 6.1 2.9 2.8 4.5 2.0 1.9 2.7 3.1 4.9 4.9 5.1 5.4 5.3 4.9 4.3 4.1 4.2 4.3 4.3 4.1 3.8 3.7 3.7 4.2 4.8 5.0 4.6 4.7 4.4 4.2 4.3 4.9 5.3 5.8 6.2
5.7 6.5 6.5 6.5 6.5 6.5 6.5 5.1 6.4 6.5 6.5 6.4 5.8 6.5 5.9 4.7 5.2 3.0 1.9 1.2 2.5 1.9 2.6 3.5 5.7 5.8 5.1 4.2 4.1 4.2 4.3 4.3 4.0 3.4 3.2 3.3 3.8 4.1 4.2 4.1 4.2 4.1 4.0 4.1 4.4 4.8 5.7 6.2 6.4
4.3 6.6 6.5 6.5 6.5 6.5 6.4 5.9 3.9 5.2 6.6 5.5 4.7 6.5 6.1 5.4 3.3 3.0 2.5 2.7 2.0 2.4 2.3 3.2 4.3 4.9 4.6 4.3 4.1 3.8 3.7 3.5 3.2 3.0 3.1 3.5 3.8 3.7 3.8 4.0 4.0 3.8 4.0 4.1 4.3 5.2 5.8 6.6 7.0
5.2 6.5 6.5 6.5 6.5 6.5 5.7 6.5 5.3 5.0 5.8 6.6 5.9 5.3 5.1 6.1 2.9 3.2 3.5 3.1 3.1 2.1 1.0 3.4 4.4 4.1 4.6 4.7 4.2 3.8 3.4 3.0 3.1 3.3 3.5 3.7 3.8 3.5 3.6 3.6 3.6 3.8 3.8 4.1 5.1 5.8 6.4 7.3 7.5
5.7 6.5 6.5 6.5 6.5 6.5 5.9 5.8 5.3 6.3 6.7 6.5 6.9 6.0 3.8 6.0 4.5 4.4 4.3 3.8 3.1 2.3 1.4 4.3 4.4 3.9 4.8 5.4 4.5 4.1 4.3 4.2 4.4 4.7 4.6 3.7 3.3 3.5 3.1 3.3 3.5 3.7 4.0 5.3 5.9 6.2 6.8 7.0 6.5
4.7 6.5 6.5 5.9 5.6 5.6 6.1 5.8 5.6 6.2 6.5 5.7 6.7 5.4 6.0 4.6 5.0 5.4 4.8 4.9 3.9 3.8 4.4 4.1 4.6 4.5 3.8 4.9 4.2 4.0 4.3 4.7 4.9 5.6 5.2 3.5 3.2 2.9 2.4 2.3 3.1 3.7 4.5 5.0 5.2 5.5 6.0 5.5 6.0
6.5 5.6 5.8 5.3 5.5 6.1 6.5 5.9 6.5 4.3 5.9 6.8 5.2 4.1 5.4 5.1 4.7 4.5 5.3 4.5 3.6 3.6 4.5 4.0 3.9 3.6 3.2 3.3 3.4 4.0 4.4 4.6 5.3 6.2 5.6 4.3 3.5 3.7 3.2 3.0 3.6 4.1 5.0 4.9 5.2 5.1 5.6 6.2 6.7
6.5 6.5 5.8 5.6 4.5 5.2 5.9 6.1 6.1 6.1 4.7 7.3 5.3 5.4 6.0 5.5 4.6 4.0 4.3 4.7 4.1 3.8 3.9 3.3 3.1 3.3 3.7 3.7 4.5 5.4 6.1 6.0 6.0 6.6 5.7 5.4 4.3 4.0 3.2 4.0 4.5 5.1 5.6 5.5 4.9 5.3 5.6 5.9 5.9
5.5 5.6 5.5 5.0 5.0 5.5 6.5 6.2 5.7 5.1 5.8 7.0 5.9 5.8 6.7 5.6 5.1 4.4 4.4 4.2 4.6 3.8 3.6 3.6 3.8 3.6 3.6 3.7 4.4 5.0 5.0 5.7 6.1 6.7 6.9 5.4 5.4 3.7 3.6 4.1 4.9 5.3 6.5 6.4 5.9 5.3 5.3 5.0 5.5
5.9 6.5 6.5 6.2 5.9 6.5 5.9 6.5 6.5 5.7 5.5 6.8 7.3 6.2 5.9 6.2 5.4 4.6 4.5 4.0 3.4 3.6 3.5 3.7 3.5 4.7 4.6 3.2 4.6 5.2 6.2 6.2 5.7 6.4 7.5 7.7 5.9 4.8 4.0 4.3 4.2 5.8 7.0 6.6 6.1 5.4 5.3 3.9 4.9
6.5 6.5 6.5 6.5 6.5 6.1 6.1 6.5 6.5 5.6 5.1 5.8 6.3 6.2 6.6 6.4 5.7 4.7 4.4 4.0 3.8 3.7 3.7 4.0 4.7 4.2 3.8 4.6 4.7 5.3 5.6 5.7 5.9 6.2 7.6 6.6 5.5 6.9 4.7 3.6 4.3 6.3 6.1 5.6 4.9 4.3 3.7 3.9 3.1
6.5 6.5 6.5 6.5 6.4 6.5 6.5 6.5 6.5 4.7 5.8 5.8 5.5 5.6 6.2 6.3 5.4 5.0 4.5 4.4 4.8 4.5 4.8 4.5 4.7 5.4 4.8 4.1 5.1 5.4 5.0 5.5 6.3 7.1 7.0 5.8 5.9 5.7 5.2 4.7 4.9 5.8 5.4 5.1 5.2 4.2 4.0 3.9 3.9
6.5 6.5 6.5 6.5 6.5 6.5 6.5 6.5 6.5 4.5 5.0 5.7 4.6 4.9 6.5 6.7 6.4 6.1 5.5 5.5 5.2 5.2 5.2 5.2 5.8 5.3 4.1 4.2 5.5 5.7 5.7 6.0 6.2 5.2 4.8 5.2 5.6 6.0 5.8 5.0 5.0 5.6 4.8 4.0 4.1 4.3 4.2 4.2 4.0
6.5 6.5 6.5 6.5 6.5 6.5 6.5 6.5 6.5 6.2 6.0 6.2 5.5 6.2 6.1 6.7 7.0 6.3 6.1 5.5 4.9 5.4 5.1 5.0 4.1 4.1 4.1 4.2 5.2 6.3 6.0 4.8 4.5 4.4 5.7 5.8 6.0 6.7 6.0 5.0 3.8 5.2 4.0 3.7 4.0 4.0 4.5 4.3 3.8
6.5 6.5 6.5 6.5 6.5 6.5 6.5 6.5 6.5 6.5 6.4 6.4 6.4 6.2 6.3 6.1 6.4 6.5 5.6 6.0 5.1 4.0 4.6 4.6 3.8 3.6 4.6 4.4 5.5 5.8 6.0 5.4 5.1 5.3 5.6 6.8 7.0 6.2 5.1 4.8 3.5 4.4 3.8 3.7 3.8 4.1 3.9 4.0 3.3
6.5 6.5 6.5 6.5 6.5 6.5 6.5 6.5 6.5 6.5 6.6 6.8 6.8 6.5 6.2 4.9 5.5 6.1 6.4 5.9 5.3 4.2 3.5 3.8 3.8 3.3 4.0 4.4 5.5 5.6 5.0 4.4 5.0 4.9 5.1 5.2 5.6 4.2 5.0 5.0 4.7 4.1 3.0 3.0 3.2 3.5 4.2 4.0 3.6
6.5 6.5 6.5 6.5 6.5 6.5 6.5 6.5 6.5 6.5 6.5 6.5 6.6 6.5 6.7 6.3 6.2 6.4 6.7 5.3 4.2 3.9 4.2 5.1 5.5 4.9 4.6 5.0 5.6 6.0 6.9 6.5 5.2 4.2 4.0 3.7 3.8 4.1 4.4 4.9 4.8 4.4 3.9 3.8 3.5 3.7 3.6 4.0 3.9
6.5 6.5 6.5 6.5 6.5 6.5 6.5 6.5 6.5 6.5 6.5 6.5 6.5 6.6 6.8 6.3 5.8 6.9 6.7 5.8 4.9 5.1 5.1 5.7 6.1 5.9 5.6 5.7 5.4 6.2 5.4 5.7 4.1 3.9 3.9 3.5 3.1 4.2 4.7 5.0 4.5 4.7 3.9 3.5 4.0 3.4 3.4 3.6 3.2
6.5 6.5 6.5 6.5 6.5 6.5 6.5 6.5 6.5 6.5 6.5 6.5 6.4 6.6 6.7 6.7 5.9 5.3 6.1 7.0 6.7 6.1 5.6 5.9 6.8 6.7 6.3 5.8 6.0 5.5 6.3 5.2 5.0 4.3 3.9 3.1 2.3 2.0 3.1 4.0 4.3 5.3 5.0 4.3 4.4 2.8 2.7 2.6 3.3
6.5 6.5 6.5 6.5 6.5 6.5 6.5 6.5 6.5 6.5 6.5 6.5 6.5 6.3 6.6 6.5 6.3 6.1 5.7 6.0 6.9 6.8 6.3 6.1 6.5 7.2 6.5 5.7 5.6 5.8 5.1 5.1 4.7 4.1 3.7 2.7 2.7 2.2 2.1 2.7 3.7 4.8 5.0 4.1 4.1 3.6 3.0 2.9 3.1
6.5 6.5 6.5 6.5 6.5 6.5 6.5 6.5 6.5 6.5 6.1 4.8 4.7 6.2 6.5 6.7 6.8 5.9 5.5 5.8 6.2 6.3 5.9 6.3 6.5 6.8 7.0 6.0 5.5 5.6 4.5 5.1 4.8 4.3 3.5 3.2 2.7 2.1 1.7 2.3 3.4 4.4 4.2 3.8 3.5 2.9 3.0 2.7 2.9
6.5 6.5 6.5 6.5 6.5 6.5 6.5 6.5 6.5 6.5 6.5 6.4 5.3 4.6 5.5 6.3 6.7 6.3 6.0 6.2 6.5 6.2 5.3 5.1 6.1 6.6 7.0 5.8 5.6 5.3 4.9 4.8 4.4 3.9 3.2 2.6 2.1 2.0 1.8 3.3 4.2 3.2 3.2 3.2 2.6 3.0 2.9 2.9 3.8
6.5 6.5 6.5 6.5 6.5 6.5 6.5 6.5 6.5 6.5 6.5 6.5 6.5 5.1 4.1 4.5 6.1 6.5 6.5 5.7 5.8 5.4 5.7 5.2 5.5 6.0 6.0 6.5 5.5 5.3 4.6 4.1 3.4 3.0 3.0 2.4 1.9 2.9 2.8 2.9 2.4 2.5 1.9 1.9 2.4 2.3 2.8 4.0 4.1
6.5 6.5 6.5 6.5 6.5 6.5 6.5 6.5 6.5 6.5 6.5 6.5 6.5 4.2 3.5 3.7 4.0 3.8 5.6 5.7 5.4 5.0 5.1 5.4 4.9 5.9 6.2 6.3 5.0 4.9 3.9 3.3 2.7 3.0 2.0 2.3 1.5 2.8 2.4 1.0 0.6 1.5 2.7 1.9 1.9 2.3 3.4 3.0 3.1
6.5 6.5 6.5 6.5 6.5 6.5 6.5 6.5 6.5 6.5 6.5 5.9 5.4 4.2 3.5 3.6 3.0 3.6 4.3 3.8 5.9 4.7 5.0 6.0 4.5 5.1 6.3 6.4 4.5 4.4 3.5 3.1 2.7 3.7 3.3 2.1 1.0 1.0 1.2 1.5 2.3 1.9 2.2 1.9 2.5 2.7 3.4 3.2 3.9
Wind_Speed
3 6 1 3 3 3 7 12 14 14 5 7 6 8 6 4 3 3 5 10 10 9 17 13 19 24 23 24 25 25 25 25 25 28 28 27 26 26 25 26 28 27 28 26 25 23 22 23 22
3 3 1 2 2 3 9 12 7 17 13 16 14 16 11 0 3 4 7 11 14 16 8 4 16 20 22 25 27 25 25 24 23 26 25 26 26 26 24 27 28 27 27 25 24 21 20 20 20
3 3 2 3 4 9 7 10 14 13 20 11 8 4 6 9 3 1 5 8 4 6 14 10 20 27 25 26 28 29 26 26 25 25 25 25 25 25 25 27 27 26 26 24 22 19 18 20 18
2 4 4 1 13 19 7 2 7 8 5 10 3 5 0 8 4 4 9 12 8 12 22 20 29 33 29 28 28 29 30 28 27 28 26 26 25 24 24 25 27 27 25 22 21 18 18 18 16
1 2 1 5 15 22 3 4 6 3 1 4 4 7 3 4 9 9 9 12 11 12 17 24 36 36 32 30 29 28 28 28 28 28 27 26 26 25 24 24 28 27 24 22 20 18 17 16 14
2 3 4 12 18 8 3 2 3 4 3 3 5 5 3 3 5 6 12 18 22 20 6 22 32 35 34 31 30 29 28 27 27 27 27 26 26 24 24 25 28 27 23 22 21 19 17 14 15
6 2 7 10 12 1 3 2 2 5 3 4 5 5 9 4 2 7 15 15 13 14 16 22 28 34 32 32 29 28 27 26 27 28 27 25 24 24 24 27 27 25 24 23 22 19 16 13 13
3 3 9 7 7 4 4 5 8 7 3 6 5 1 4 4 7 9 9 7 10 13 7 13 18 27 27 28 29 28 27 27 27 28 27 25 25 25 26 26 26 26 24 23 22 20 16 13 12
2 3 7 11 9 5 3 2 8 16 8 3 6 2 5 1 10 9 6 4 3 4 17 10 15 18 26 27 27 28 29 28 28 26 28 24 18 19 17 21 25 23 23 23 23 19 16 13 10
3 3 10 12 3 4 7 8 4 7 9 1 9 6 13 8 7 9 6 6 4 8 14 15 7 12 17 20 22 23 23 19 21 20 18 16 17 16 20 23 22 21 21 24 19 18 14 9 10
9 7 13 10 6 4 4 7 8 7 9 4 8 6 9 11 9 7 7 7 10 13 10 12 11 14 13 11 15 14 17 20 16 19 16 19 16 11 14 18 15 15 18 15 14 13 8 12 11
5 12 7 7 8 3 3 3 5 12 6 6 14 11 9 8 8 8 7 5 6 12 14 12 12 10 11 12 10 14 17 16 13 18 18 14 12 8 12 13 14 15 17 15 13 11 13 14 11
8 7 6 5 8 7 8 2 4 3 5 8 15 12 10 8 6 10 9 7 8 12 14 12 11 11 9 12 13 14 13 18 14 13 17 14 12 9 13 14 14 14 16 13 12 13 12 10 10
8 11 9 5 7 4 3 3 2 0 4 8 15 8 7 6 5 8 11 10 9 12 14 13 12 10 13 9 10 9 7 7 13 15 17 18 15 13 12 12 10 9 15 14 14 12 10 9 9
11 9 9 8 4 2 2 0 2 3 6 6 11 11 9 6 7 7 9 12 14 8 12 13 13 12 9 9 5 9 10 8 10 13 13 18 16 15 12 8 9 14 16 14 12 9 10 8 7
9 7 5 5 6 6 7 8 4 9 9 3 8 12 10 7 6 8 9 12 13 14 13 14 12 12 9 7 8 11 9 11 10 8 15 9 10 13 11 8 7 13 11 14 10 6 4 4 4
5 8 6 8 8 5 4 4 7 9 12 8 10 11 10 9 9 8 11 11 12 14 15 14 15 14 10 8 9 10 13 7 4 12 12 12 8 10 13 9 8 16 13 10 7 2 3 3 3
7 6 5 5 4 6 12 5 7 10 10 11 9 8 11 12 10 10 9 11 12 13 15 16 12 12 9 7 6 8 6 8 13 14 11 6 11 14 15 12 14 15 7 5 4 3 1 3 4
14 16 7 9 7 10 10 7 12 13 11 13 9 12 11 12 14 12 10 8 8 8 11 13 12 10 9 6 5 6 7 4 3 4 9 13 14 16 14 10 12 12 5 5 5 3 4 1 1
17 9 6 7 8 12 7 8 10 10 19 21 18 14 14 13 14 15 13 13 12 11 10 10 12 12 10 8 8 5 5 3 6 10 13 18 19 17 14 12 7 9 5 6 6 5 2 1 3
7 5 6 9 8 6 1 6 4 7 18 14 17 17 17 18 17 16 16 16 13 13 13 14 15 16 14 13 8 7 4 3 6 7 7 10 16 11 10 15 12 9 7 6 6 6 6 4 2
3 9 11 6 3 4 2 5 4 5 14 19 16 16 18 19 17 17 18 18 17 16 14 16 16 17 15 15 12 14 10 8 6 5 5 5 15 14 14 15 16 12 9 9 6 5 4 4 4
7 8 3 3 6 4 4 0 7 7 9 16 20 20 20 21 21 21 20 19 19 19 17 16 16 16 17 16 15 11 7 9 4 5 7 5 6 14 14 11 12 8 8 6 7 6 6 4 4
6 4 5 2 2 5 8 3 7 5 15 17 20 22 22 21 21 21 20 18 18 20 19 18 19 18 19 18 18 13 13 11 8 8 7 6 4 4 8 10 7 11 9 8 8 6 8 5 5
5 4 2 4 2 5 9 6 10 8 8 8 24 21 23 23 22 21 21 20 20 21 20 18 18 16 19 17 17 17 14 15 14 11 9 9 7 4 7 7 6 6 9 10 12 8 8 6 4
8 10 5 6 3 3 13 5 6 5 6 9 10 20 22 21 22 24 24 24 23 23 22 20 20 19 17 17 16 14 10 10 9 12 9 9 9 8 6 6 7 9 11 13 10 6 3 6 5
4 5 9 6 1 2 5 7 1 4 5 5 6 7 17 21 21 24 24 23 23 24 25 26 23 20 17 16 15 15 13 10 11 12 11 8 8 8 8 9 6 7 12 12 9 4 4 4 2
10 3 2 1 7 6 4 5 3 3 4 4 5 8 8 10 18 19 20 23 21 22 23 23 23 23 22 17 16 14 14 12 10 12 14 13 11 9 8 6 10 10 10 14 8 6 3 4 2
4 8 3 9 4 5 3 5 5 7 4 2 2 8 8 8 6 12 23 21 22 20 20 21 20 20 17 16 15 16 13 10 11 11 10 12 9 7 8 11 13 15 13 10 9 8 8 7 6
16 12 10 5 5 4 5 5 5 8 10 8 9 8 8 8 9 8 5 12 20 21 19 19 19 19 17 16 13 15 14 12 11 11 10 9 10 10 13 13 14 12 12 11 10 9 8 8 7
Wind_Direction
264 251 193 14 45 72 268 266 250 278 25 333 332 22 71 28 71 206 190 197 138 116 27 193 158 146 141 134 126 122 121 120 118 117 114 115 114 114 116 113 110 109 106 105 102 102 103 101 100
308 265 1 294 133 289 278 260 273 52 25 9 8 349 11 210 70 134 159 239 202 151 98 287 149 138 136 133 125 122 120 115 115 112 116 117 117 118 119 115 114 112 109 108 107 108 105 95 86
300 217 81 162 207 246 256 3 353 60 48 48 355 37 19 342 339 166 148 171 249 125 125 208 180 150 143 137 130 129 124 122 119 119 118 117 117 120 118 116 117 116 113 114 112 110 95 87 82
307 352 332 214 262 263 206 25 60 1 61 61 342 62 343 289 356 46 181 169 163 179 176 216 202 152 151 142 135 134 130 129 128 123 121 120 121 119 116 118 118 114 116 116 112 100 86 75 63
342 308 274 256 263 264 273 77 124 102 102 314 13 308 219 282 53 316 233 201 171 215 198 188 158 151 150 143 137 132 128 129 128 125 123 123 124 125 123 120 119 118 119 116 108 98 94 84 65
297 125 289 278 281 300 244 233 168 100 181 314 36 353 267 336 51 318 79 78 70 44 34 169 153 151 144 139 133 129 129 128 124 121 120 119 118 119 124 123 121 119 117 111 107 104 95 79 63
211 105 256 271 298 171 320 266 164 117 91 26 17 31 342 21 163 112 95 86 89 72 32 4 158 153 136 131 127 126 124 123 120 116 114 112 112 114 114 118 119 119 117 115 113 110 103 85 62
209 129 287 296 287 265 241 310 170 145 110 116 167 67 257 344 109 88 79 93 139 125 122 11 330 139 126 119 120 118 116 116 116 116 113 112 114 115 118 121 123 123 122 119 117 116 111 95 69
268 310 277 275 308 313 250 351 331 91 115 68 200 202 77 82 113 101 98 73 36 171 101 77 294 94 111 116 113 113 114 114 115 113 114 112 112 111 112 122 122 126 125 127 123 132 122 111 86
173 204 251 260 265 17 13 34 305 77 112 270 241 212 139 188 85 119 124 115 118 90 112 140 99 87 108 117 121 121 116 116 121 121 115 109 110 121 120 119 119 122 126 125 142 131 125 100 69
251 227 264 287 307 65 31 351 22 45 49 280 306 332 132 115 110 105 107 122 141 123 115 118 119 131 128 134 125 120 116 126 121 117 117 111 109 111 120 110 116 123 127 130 129 125 116 82 101
288 260 264 300 309 45 344 72 67 103 205 27 69 53 74 96 107 100 88 97 94 107 114 107 110 112 114 109 100 113 121 114 106 114 112 122 113 137 121 115 134 132 143 139 144 126 113 101 99
314 294 309 356 54 22 8 60 157 157 201 86 85 78 80 86 92 106 93 90 113 114 110 100 102 109 115 108 107 105 121 123 139 146 143 149 127 175 124 141 143 149 151 156 143 121 111 102 90
280 305 297 6 329 33 307 66 90 168 346 89 100 101 103 116 112 116 120 112 106 111 114 117 110 98 101 97 110 118 127 133 124 132 149 132 164 147 142 153 156 159 170 161 137 138 133 126 116
323 317 310 273 312 314 55 265 211 266 180 106 128 131 124 135 134 132 130 124 120 104 118 125 118 113 105 97 101 109 97 131 112 125 154 177 168 156 143 155 147 157 164 154 148 142 130 137 144
299 302 282 278 286 266 132 259 188 170 142 186 124 116 121 121 111 123 123 121 120 121 113 119 130 116 96 93 89 113 114 92 106 124 204 165 131 162 137 129 166 163 151 146 133 134 124 153 154
262 255 254 328 257 223 131 246 239 221 129 137 126 123 137 128 120 130 131 134 137 132 133 132 132 132 126 92 102 108 95 96 225 205 208 168 167 176 159 170 166 152 147 140 145 132 147 166 162
245 229 167 234 278 182 256 236 222 251 117 125 129 133 129 126 134 136 138 139 142 154 154 148 148 140 121 123 145 141 171 186 211 218 218 201 197 205 190 171 158 165 146 148 139 146 148 153 153
260 277 233 244 233 209 227 188 206 230 137 139 158 148 154 149 151 148 152 157 155 159 151 147 142 147 146 150 165 181 194 205 229 245 220 215 217 220 187 162 169 166 148 165 157 144 129 80 149
259 272 303 307 196 212 251 273 193 182 160 164 164 158 155 150 161 168 170 169 171 163 155 160 162 164 173 171 182 185 202 210 204 208 210 210 214 204 173 170 179 159 145 154 158 138 125 122 164
255 273 288 267 289 336 45 319 154 176 161 173 164 159 160 162 167 179 182 173 176 181 186 177 177 175 181 180 192 213 197 171 194 203 208 200 197 196 173 174 174 169 153 164 165 155 159 167 234
257 256 260 304 12 259 121 276 275 179 159 168 171 170 170 168 171 181 178 174 179 189 189 183 181 181 188 196 201 212 204 191 197 190 194 174 173 185 190 181 185 173 165 166 169 162 161 141 164
226 268 304 348 317 343 288 21 272 257 183 181 179 186 180 176 173 179 181 183 180 184 193 194 195 195 199 201 204 213 192 191 171 177 177 170 181 187 200 198 175 171 166 166 168 154 154 140 144
208 290 307 301 255 303 274 172 277 218 189 197 185 187 184 181 181 182 182 184 189 188 194 198 201 199 200 200 204 211 202 180 179 183 180 174 171 174 188 189 178 184 171 175 178 150 150 144 135
169 163 323 346 10 234 350 322 233 225 224 209 182 182 186 184 180 182 185 188 192 192 195 196 204 202 198 200 202 205 190 185 184 180 178 172 181 188 197 191 197 198 175 155 151 153 143 141 142
215 188 160 200 178 338 14 280 291 226 212 141 167 187 185 181 184 186 190 191 194 194 196 200 206 214 206 202 204 206 195 193 191 182 178 186 189 193 186 196 195 187 150 143 141 130 131 130 144
232 188 198 133 117 109 232 279 11 64 332 121 155 173 178 187 186 191 191 193 193 193 195 197 202 209 208 202 206 208 203 198 182 178 170 179 181 179 182 188 174 131 135 129 115 103 86 83 119
187 184 119 311 161 208 238 253 205 49 280 291 88 109 121 148 188 197 195 197 198 198 199 196 200 202 204 205 199 205 202 191 170 167 175 177 185 178 173 152 124 110 96 87 82 91 122 157 167
179 211 157 240 204 180 205 271 222 186 180 78 261 157 160 168 178 172 202 205 199 203 201 200 201 206 207 210 193 194 197 191 164 169 170 181 170 149 129 132 130 135 144 146 143 161 172 178 199
195 196 191 152 248 190 144 262 170 172 250 190 242 170 181 177 185 188 196 173 196 203 199 197 200 201 206 203 188 196 184 182 170 167 160 146 139 138 146 149 149 149 150 159 164 168 176 192 202